| time (UTC) | temp F | wind direction | speed MPH | gust MPH | rain 1hr in | rain 24hr in | rain mn in | humidity % | barometer mb |
| 20260507085215 | 51 | 311 | 0.0 | 2.0 | 0.00 | 0.00 | 0.00 | 89 | 1022.3 |
| 20260507085057 | 51 | 311 | 0.0 | 2.0 | 0.00 | 0.00 | 0.00 | 89 | 1022.3 |
| 20260507084716 | 51 | 311 | 1.0 | 2.0 | 0.00 | 0.00 | 0.00 | 88 | 1022.4 |
| 20260507084538 | 51 | 311 | 1.0 | 2.0 | 0.00 | 0.00 | 0.00 | 88 | 1022.3 |
| 20260507084245 | 51 | 311 | 1.0 | 2.0 | 0.00 | 0.00 | 0.00 | 88 | 1022.4 |
| 20260507084100 | 51 | 311 | 0.0 | 2.0 | 0.00 | 0.00 | 0.00 | 88 | 1022.3 |
| 20260507083725 | 51 | 313 | 1.0 | 2.0 | 0.00 | 0.00 | 0.00 | 88 | 1022.4 |
| 20260507083542 | 51 | 273 | 0.0 | 2.0 | 0.00 | 0.00 | 0.00 | 88 | 1022.3 |
| 20260507083226 | 51 | 273 | 1.0 | 2.0 | 0.00 | 0.00 | 0.00 | 88 | 1022.4 |
| 20260507083023 | 51 | 273 | 0.0 | 2.0 | 0.00 | 0.00 | 0.00 | 88 | 1022.2 |
| 20260507082735 | 51 | 273 | 1.0 | 4.0 | 0.00 | 0.00 | 0.00 | 88 | 1022.4 |
| 20260507082508 | 51 | 273 | 0.0 | 4.0 | 0.00 | 0.00 | 0.00 | 88 | 1022.3 |
| 20260507082216 | 51 | 273 | 2.0 | 4.0 | 0.00 | 0.00 | 0.00 | 88 | 1022.4 |
| 20260507082048 | 51 | 273 | 2.0 | 4.0 | 0.00 | 0.00 | 0.00 | 88 | 1022.3 |
| 20260507081745 | 51 | 308 | 1.0 | 5.0 | 0.00 | 0.00 | 0.00 | 87 | 1022.5 |
| 20260507081509 | 51 | 315 | 2.0 | 5.0 | 0.00 | 0.00 | 0.00 | 88 | 1022.4 |
| 20260507081224 | 51 | 315 | 2.0 | 5.0 | 0.00 | 0.00 | 0.00 | 88 | 1022.4 |
| 20260507081032 | 51 | 321 | 2.0 | 6.0 | 0.00 | 0.00 | 0.00 | 88 | 1022.4 |
| 20260507080750 | 51 | 308 | 2.0 | 6.0 | 0.00 | 0.00 | 0.00 | 88 | 1022.4 |
| 20260507080552 | 51 | 267 | 2.0 | 6.0 | 0.00 | 0.00 | 0.00 | 88 | 1022.2 |
| 20260507080210 | 51 | 320 | 1.0 | 2.0 | 0.00 | 0.00 | 0.00 | 88 | 1022.4 |
| 20260507080036 | 51 | 325 | 0.0 | 2.0 | 0.00 | 0.00 | 0.00 | 88 | 1022.2 |
| 20260507075712 | 51 | 325 | 2.0 | 2.0 | 0.00 | 0.00 | 0.00 | 88 | 1022.4 |
| 20260507075513 | 51 | 326 | 0.0 | 3.0 | 0.00 | 0.00 | 0.00 | 88 | 1022.2 |
| 20260507075220 | 52 | 326 | 0.0 | 3.0 | 0.00 | 0.00 | 0.00 | 88 | 1022.4 |
| 20260507075057 | 51 | 326 | 0.0 | 3.0 | 0.00 | 0.00 | 0.00 | 88 | 1022.2 |
| 20260507074722 | 52 | 326 | 1.0 | 3.0 | 0.00 | 0.00 | 0.00 | 88 | 1022.4 |
| 20260507074539 | 51 | 287 | 0.0 | 2.0 | 0.00 | 0.00 | 0.00 | 88 | 1022.3 |
| 20260507074223 | 52 | 287 | 1.0 | 2.0 | 0.00 | 0.00 | 0.00 | 87 | 1022.4 |
| 20260507074021 | 51 | 287 | 0.0 | 2.0 | 0.00 | 0.00 | 0.00 | 87 | 1022.2 |
| 20260507073713 | 52 | 287 | 1.0 | 2.0 | 0.00 | 0.00 | 0.00 | 87 | 1022.4 |
| 20260507073602 | 51 | 291 | 0.0 | 2.0 | 0.00 | 0.00 | 0.00 | 87 | 1022.3 |
| 20260507073213 | 52 | 291 | 1.0 | 2.0 | 0.00 | 0.00 | 0.00 | 87 | 1022.3 |
| 20260507073057 | 51 | 291 | 0.0 | 3.0 | 0.00 | 0.00 | 0.00 | 87 | 1022.3 |
| 20260507072714 | 52 | 291 | 1.0 | 4.0 | 0.00 | 0.00 | 0.00 | 87 | 1022.3 |
| 20260507072525 | 51 | 291 | 0.0 | 4.0 | 0.00 | 0.00 | 0.00 | 87 | 1022.2 |
| 20260507072223 | 52 | 333 | 2.0 | 4.0 | 0.00 | 0.00 | 0.00 | 87 | 1022.3 |
| 20260507072006 | 51 | 342 | 3.0 | 4.0 | 0.00 | 0.00 | 0.00 | 87 | 1022.2 |
| 20260507071744 | 52 | 304 | 1.0 | 4.0 | 0.00 | 0.00 | 0.00 | 87 | 1022.3 |
| 20260507071534 | 51 | 304 | 1.0 | 4.0 | 0.00 | 0.00 | 0.00 | 87 | 1022.1 |
| 20260507071232 | 52 | 311 | 2.0 | 4.0 | 0.00 | 0.00 | 0.00 | 87 | 1022.3 |
| 20260507071007 | 51 | 323 | 2.0 | 4.0 | 0.00 | 0.00 | 0.00 | 87 | 1022.1 |
| 20260507070710 | 52 | 326 | 2.0 | 4.0 | 0.00 | 0.00 | 0.00 | 87 | 1022.2 |
| 20260507070551 | 51 | 313 | 0.0 | 3.0 | 0.00 | 0.00 | 0.00 | 87 | 1022.1 |
| 20260507070211 | 52 | 313 | 1.0 | 3.0 | 0.00 | 0.00 | 0.00 | 87 | 1022.1 |
| 20260507070039 | 51 | 313 | 0.0 | 3.0 | 0.00 | 0.00 | 0.00 | 87 | 1022.0 |
| 20260507065712 | 52 | 309 | 1.0 | 4.0 | 0.00 | 0.00 | 0.00 | 86 | 1022.2 |
| 20260507065513 | 51 | 309 | 1.0 | 4.0 | 0.00 | 0.00 | 0.00 | 86 | 1022.2 |
| 20260507065221 | 52 | 306 | 2.0 | 4.0 | 0.00 | 0.00 | 0.00 | 86 | 1022.3 |
| 20260507065057 | 51 | 296 | 2.0 | 4.0 | 0.00 | 0.00 | 0.00 | 86 | 1022.2 |
| 20260507064751 | 52 | 298 | 2.0 | 4.0 | 0.00 | 0.00 | 0.00 | 86 | 1022.3 |
| 20260507064517 | 52 | 321 | 1.0 | 4.0 | 0.00 | 0.00 | 0.00 | 86 | 1022.1 |
| 20260507064211 | 52 | 315 | 2.0 | 4.0 | 0.00 | 0.00 | 0.00 | 86 | 1022.3 |
| 20260507064101 | 52 | 306 | 1.0 | 2.0 | 0.00 | 0.00 | 0.00 | 86 | 1022.1 |
| 20260507063712 | 52 | 302 | 1.0 | 2.0 | 0.00 | 0.00 | 0.00 | 86 | 1022.3 |
| 20260507063545 | 52 | 302 | 1.0 | 2.0 | 0.00 | 0.00 | 0.00 | 86 | 1022.1 |
| 20260507063214 | 52 | 302 | 1.0 | 3.0 | 0.00 | 0.00 | 0.00 | 86 | 1022.3 |
| 20260507063024 | 52 | 293 | 0.0 | 3.0 | 0.00 | 0.00 | 0.00 | 86 | 1022.1 |
| 20260507062722 | 52 | 293 | 1.0 | 3.0 | 0.00 | 0.00 | 0.00 | 86 | 1022.2 |
| 20260507062507 | 52 | 287 | 1.0 | 4.0 | 0.00 | 0.00 | 0.00 | 86 | 1022.1 |
| 20260507062224 | 52 | 308 | 1.0 | 4.0 | 0.00 | 0.00 | 0.00 | 86 | 1022.3 |
| 20260507062049 | 52 | 308 | 0.0 | 4.0 | 0.00 | 0.00 | 0.00 | 86 | 1022.1 |
| 20260507061726 | 52 | 308 | 2.0 | 4.0 | 0.00 | 0.00 | 0.00 | 85 | 1022.3 |
| 20260507061536 | 52 | 338 | 1.0 | 3.0 | 0.00 | 0.00 | 0.00 | 86 | 1022.2 |
| 20260507061234 | 52 | 304 | 1.0 | 3.0 | 0.00 | 0.00 | 0.00 | 86 | 1022.3 |
| 20260507061013 | 52 | 331 | 1.0 | 3.0 | 0.00 | 0.00 | 0.00 | 86 | 1022.2 |
| 20260507060715 | 52 | 330 | 1.0 | 3.0 | 0.00 | 0.00 | 0.00 | 86 | 1022.3 |
| 20260507060555 | 52 | 322 | 0.0 | 3.0 | 0.00 | 0.00 | 0.00 | 86 | 1022.2 |
| 20260507060237 | 52 | 322 | 2.0 | 5.0 | 0.00 | 0.00 | 0.00 | 86 | 1022.4 |
| 20260507060012 | 52 | 290 | 1.0 | 5.0 | 0.00 | 0.00 | 0.00 | 86 | 1022.2 |
| 20260507055720 | 52 | 280 | 2.0 | 5.0 | 0.00 | 0.00 | 0.00 | 85 | 1022.4 |
| 20260507055555 | 52 | 277 | 2.0 | 6.0 | 0.00 | 0.00 | 0.00 | 85 | 1022.2 |
| 20260507055228 | 52 | 312 | 1.0 | 6.0 | 0.00 | 0.00 | 0.00 | 86 | 1022.4 |
| 20260507055016 | 52 | 328 | 1.0 | 6.0 | 0.00 | 0.00 | 0.00 | 85 | 1022.2 |
| 20260507054709 | 52 | 321 | 1.0 | 5.0 | 0.00 | 0.00 | 0.00 | 85 | 1022.4 |
| 20260507054559 | 52 | 305 | 1.0 | 5.0 | 0.00 | 0.00 | 0.00 | 85 | 1022.2 |
| 20260507054231 | 53 | 325 | 1.0 | 5.0 | 0.00 | 0.00 | 0.00 | 85 | 1022.4 |
| 20260507054022 | 52 | 327 | 2.0 | 5.0 | 0.00 | 0.00 | 0.00 | 85 | 1022.2 |
| 20260507053718 | 53 | 300 | 2.0 | 7.0 | 0.00 | 0.00 | 0.00 | 85 | 1022.4 |
| 20260507053501 | 52 | 321 | 0.0 | 7.0 | 0.00 | 0.00 | 0.00 | 85 | 1022.2 |
| 20260507053220 | 53 | 324 | 3.0 | 7.0 | 0.00 | 0.00 | 0.00 | 85 | 1022.4 |
| 20260507053045 | 52 | 292 | 3.0 | 7.0 | 0.00 | 0.00 | 0.00 | 85 | 1022.4 |
| 20260507052722 | 53 | 306 | 1.0 | 4.0 | 0.00 | 0.00 | 0.00 | 85 | 1022.4 |
| 20260507052526 | 52 | 315 | 1.0 | 4.0 | 0.00 | 0.00 | 0.00 | 85 | 1022.4 |
| 20260507052230 | 53 | 298 | 2.0 | 4.0 | 0.00 | 0.00 | 0.00 | 85 | 1022.4 |
| 20260507052008 | 52 | 323 | 2.0 | 4.0 | 0.00 | 0.00 | 0.00 | 85 | 1022.3 |
| 20260507051710 | 53 | 301 | 1.0 | 3.0 | 0.00 | 0.00 | 0.00 | 85 | 1022.4 |
| 20260507051531 | 52 | 275 | 1.0 | 3.0 | 0.00 | 0.00 | 0.00 | 85 | 1022.3 |
| 20260507051212 | 53 | 293 | 2.0 | 4.0 | 0.00 | 0.00 | 0.00 | 85 | 1022.4 |
| 20260507051011 | 53 | 317 | 1.0 | 4.0 | 0.00 | 0.00 | 0.00 | 84 | 1022.4 |
| 20260507050721 | 53 | 279 | 1.0 | 4.0 | 0.00 | 0.00 | 0.00 | 84 | 1022.5 |
| 20260507050555 | 53 | 273 | 1.0 | 4.0 | 0.00 | 0.00 | 0.00 | 84 | 1022.3 |
| 20260507050222 | 53 | 224 | 1.0 | 4.0 | 0.00 | 0.00 | 0.00 | 84 | 1022.5 |
| 20260507050036 | 53 | 268 | 1.0 | 4.0 | 0.00 | 0.00 | 0.00 | 84 | 1022.3 |
| 20260507045730 | 54 | 268 | 1.0 | 4.0 | 0.00 | 0.00 | 0.00 | 84 | 1022.5 |
| 20260507045518 | 53 | 303 | 1.0 | 4.0 | 0.00 | 0.00 | 0.00 | 84 | 1022.3 |
| 20260507045232 | 54 | 289 | 1.0 | 4.0 | 0.00 | 0.00 | 0.00 | 83 | 1022.5 |
| 20260507045041 | 53 | 290 | 1.0 | 4.0 | 0.00 | 0.00 | 0.00 | 83 | 1022.3 |
| 20260507044710 | 54 | 315 | 2.0 | 4.0 | 0.00 | 0.00 | 0.00 | 83 | 1022.4 |
| 20260507044519 | 53 | 312 | 1.0 | 4.0 | 0.00 | 0.00 | 0.00 | 83 | 1022.2 |
| 20260507044239 | 54 | 265 | 3.0 | 4.0 | 0.00 | 0.00 | 0.00 | 83 | 1022.4 |
| 20260507044043 | 53 | 265 | 2.0 | 4.0 | 0.00 | 0.00 | 0.00 | 83 | 1022.4 |
| 20260507043719 | 54 | 320 | 2.0 | 6.0 | 0.00 | 0.00 | 0.00 | 83 | 1022.5 |
| 20260507043525 | 53 | 309 | 3.0 | 6.0 | 0.00 | 0.00 | 0.00 | 83 | 1022.3 |
| 20260507043227 | 54 | 285 | 3.0 | 6.0 | 0.00 | 0.00 | 0.00 | 83 | 1022.6 |
| 20260507043005 | 53 | 277 | 2.0 | 6.0 | 0.00 | 0.00 | 0.00 | 82 | 1022.4 |
| 20260507042729 | 54 | 318 | 2.0 | 4.0 | 0.00 | 0.00 | 0.00 | 83 | 1022.5 |
| 20260507042549 | 54 | 261 | 2.0 | 4.0 | 0.00 | 0.00 | 0.00 | 83 | 1022.3 |
| 20260507042210 | 54 | 265 | 1.0 | 3.0 | 0.00 | 0.00 | 0.00 | 83 | 1022.5 |
| 20260507042030 | 54 | 281 | 1.0 | 5.0 | 0.00 | 0.00 | 0.00 | 83 | 1022.3 |
| 20260507041712 | 54 | 326 | 2.0 | 5.0 | 0.00 | 0.00 | 0.00 | 83 | 1022.5 |
| 20260507041512 | 54 | 328 | 1.0 | 5.0 | 0.00 | 0.00 | 0.00 | 83 | 1022.3 |
| 20260507041240 | 54 | 279 | 2.0 | 5.0 | 0.00 | 0.00 | 0.00 | 83 | 1022.5 |
| 20260507041034 | 54 | 333 | 1.0 | 4.0 | 0.00 | 0.00 | 0.00 | 83 | 1022.4 |
| 20260507040724 | 54 | 246 | 2.0 | 4.0 | 0.00 | 0.00 | 0.00 | 82 | 1022.4 |
| 20260507040513 | 54 | 322 | 2.0 | 4.0 | 0.00 | 0.00 | 0.00 | 82 | 1022.2 |
| 20260507040226 | 55 | 327 | 1.0 | 6.0 | 0.00 | 0.00 | 0.00 | 82 | 1022.4 |
| 20260507040105 | 54 | 328 | 1.0 | 6.0 | 0.00 | 0.00 | 0.00 | 82 | 1022.2 |
| 20260507035754 | 55 | 279 | 2.0 | 6.0 | 0.00 | 0.00 | 0.00 | 82 | 1022.4 |
| 20260507035517 | 54 | 308 | 2.0 | 6.0 | 0.00 | 0.00 | 0.00 | 82 | 1022.2 |
| 20260507035215 | 55 | 288 | 1.0 | 5.0 | 0.00 | 0.00 | 0.00 | 82 | 1022.4 |
| 20260507035100 | 54 | 288 | 1.0 | 5.0 | 0.00 | 0.00 | 0.00 | 82 | 1022.2 |
| 20260507034716 | 55 | 232 | 2.0 | 5.0 | 0.00 | 0.00 | 0.00 | 82 | 1022.3 |
| 20260507034554 | 54 | 309 | 0.0 | 5.0 | 0.00 | 0.00 | 0.00 | 82 | 1022.1 |
| 20260507034217 | 55 | 331 | 1.0 | 5.0 | 0.00 | 0.00 | 0.00 | 82 | 1022.3 |
| 20260507034024 | 54 | 331 | 2.0 | 5.0 | 0.00 | 0.00 | 0.00 | 82 | 1022.0 |
| 20260507033746 | 55 | 266 | 3.0 | 5.0 | 0.00 | 0.00 | 0.00 | 82 | 1022.2 |
| 20260507033545 | 55 | 214 | 2.0 | 7.0 | 0.00 | 0.00 | 0.00 | 82 | 1021.9 |
| 20260507033254 | 55 | 242 | 2.0 | 9.0 | 0.00 | 0.00 | 0.00 | 82 | 1022.2 |
| 20260507033004 | 55 | 309 | 2.0 | 10.0 | 0.00 | 0.00 | 0.00 | 81 | 1022.0 |
| 20260507032713 | 55 | 259 | 5.0 | 10.0 | 0.00 | 0.00 | 0.00 | 81 | 1022.1 |
| 20260507032550 | 55 | 254 | 3.0 | 10.0 | 0.00 | 0.00 | 0.00 | 82 | 1021.8 |
| 20260507032214 | 55 | 325 | 5.0 | 9.0 | 0.00 | 0.00 | 0.00 | 82 | 1021.9 |
| 20260507032028 | 55 | 308 | 2.0 | 7.0 | 0.00 | 0.00 | 0.00 | 82 | 1021.8 |
| 20260507031723 | 56 | 258 | 2.0 | 6.0 | 0.00 | 0.00 | 0.00 | 83 | 1021.9 |
| 20260507031510 | 55 | 293 | 3.0 | 6.0 | 0.00 | 0.00 | 0.00 | 82 | 1021.7 |
| 20260507031224 | 56 | 313 | 2.0 | 10.0 | 0.00 | 0.00 | 0.00 | 82 | 1021.9 |
| 20260507031054 | 55 | 302 | 1.0 | 10.0 | 0.00 | 0.00 | 0.00 | 82 | 1021.7 |
| 20260507030725 | 56 | 341 | 3.0 | 10.0 | 0.00 | 0.00 | 0.00 | 82 | 1021.8 |
| 20260507030538 | 56 | 319 | 5.0 | 10.0 | 0.00 | 0.00 | 0.00 | 82 | 1021.7 |
| 20260507030234 | 56 | 313 | 2.0 | 9.0 | 0.00 | 0.00 | 0.00 | 82 | 1021.8 |
| 20260507030017 | 56 | 316 | 3.0 | 9.0 | 0.00 | 0.00 | 0.00 | 82 | 1021.6 |
| 20260507025715 | 56 | 321 | 4.0 | 10.0 | 0.00 | 0.00 | 0.00 | 81 | 1021.7 |
| 20260507025600 | 56 | 277 | 4.0 | 10.0 | 0.00 | 0.00 | 0.00 | 81 | 1021.6 |
| 20260507025217 | 57 | 17 | 4.0 | 10.0 | 0.00 | 0.00 | 0.00 | 81 | 1021.7 |
| 20260507025041 | 57 | 252 | 5.0 | 10.0 | 0.00 | 0.00 | 0.00 | 81 | 1021.4 |
| 20260507024718 | 57 | 295 | 3.0 | 9.0 | 0.00 | 0.00 | 0.00 | 81 | 1021.5 |
| 20260507024523 | 57 | 303 | 2.0 | 9.0 | 0.00 | 0.00 | 0.00 | 81 | 1021.4 |
| 20260507024227 | 57 | 328 | 4.0 | 9.0 | 0.00 | 0.00 | 0.00 | 81 | 1021.5 |
| 20260507024008 | 57 | 292 | 4.0 | 8.0 | 0.00 | 0.00 | 0.00 | 81 | 1021.4 |
| 20260507023728 | 58 | 331 | 3.0 | 7.0 | 0.00 | 0.00 | 0.00 | 81 | 1021.5 |
| 20260507023547 | 57 | 321 | 2.0 | 7.0 | 0.00 | 0.00 | 0.00 | 81 | 1021.3 |
| 20260507023229 | 58 | 268 | 3.0 | 6.0 | 0.00 | 0.00 | 0.00 | 80 | 1021.5 |
| 20260507023029 | 57 | 304 | 4.0 | 6.0 | 0.00 | 0.00 | 0.00 | 80 | 1021.2 |
| 20260507022710 | 58 | 294 | 1.0 | 6.0 | 0.00 | 0.00 | 0.00 | 81 | 1021.4 |
| 20260507022512 | 58 | 342 | 1.0 | 8.0 | 0.00 | 0.00 | 0.00 | 80 | 1021.3 |
| 20260507022219 | 58 | 303 | 1.0 | 9.0 | 0.00 | 0.00 | 0.00 | 80 | 1021.5 |
| 20260507022054 | 58 | 289 | 0.0 | 9.0 | 0.00 | 0.00 | 0.00 | 80 | 1021.2 |
| 20260507021721 | 58 | 278 | 4.0 | 9.0 | 0.00 | 0.00 | 0.00 | 80 | 1021.5 |
| 20260507021536 | 58 | 344 | 4.0 | 9.0 | 0.00 | 0.00 | 0.00 | 80 | 1021.3 |
| 20260507021229 | 58 | 317 | 3.0 | 8.0 | 0.00 | 0.00 | 0.00 | 80 | 1021.5 |
| 20260507021017 | 58 | 280 | 2.0 | 8.0 | 0.00 | 0.00 | 0.00 | 80 | 1021.3 |
| 20260507020711 | 59 | 281 | 3.0 | 8.0 | 0.00 | 0.00 | 0.00 | 80 | 1021.5 |
| 20260507020601 | 58 | 355 | 2.0 | 8.0 | 0.00 | 0.00 | 0.00 | 80 | 1021.3 |
| 20260507020212 | 59 | 315 | 4.0 | 8.0 | 0.00 | 0.00 | 0.00 | 80 | 1021.5 |
| 20260507020042 | 58 | 251 | 3.0 | 8.0 | 0.00 | 0.00 | 0.00 | 80 | 1021.3 |
| 20260507015719 | 59 | 292 | 4.0 | 8.0 | 0.00 | 0.00 | 0.00 | 79 | 1021.5 |
| 20260507015503 | 58 | 284 | 3.0 | 11.0 | 0.00 | 0.00 | 0.00 | 80 | 1021.3 |
| 20260507015240 | 59 | 335 | 4.0 | 11.0 | 0.00 | 0.00 | 0.00 | 79 | 1021.5 |
| 20260507015026 | 59 | 296 | 3.0 | 11.0 | 0.00 | 0.00 | 0.00 | 79 | 1021.4 |
| 20260507014728 | 59 | 355 | 5.0 | 11.0 | 0.00 | 0.00 | 0.00 | 79 | 1021.6 |
| 20260507014506 | 59 | 288 | 5.0 | 10.0 | 0.00 | 0.00 | 0.00 | 78 | 1021.5 |
| 20260507014210 | 60 | 336 | 5.0 | 10.0 | 0.00 | 0.00 | 0.00 | 78 | 1021.6 |
| 20260507014050 | 60 | 286 | 5.0 | 9.0 | 0.00 | 0.00 | 0.00 | 78 | 1021.5 |
| 20260507013711 | 60 | 290 | 3.0 | 11.0 | 0.00 | 0.00 | 0.00 | 78 | 1021.6 |
| 20260507013532 | 60 | 5 | 3.0 | 11.0 | 0.00 | 0.00 | 0.00 | 79 | 1021.4 |
| 20260507013240 | 60 | 320 | 3.0 | 11.0 | 0.00 | 0.00 | 0.00 | 78 | 1021.7 |
| 20260507013113 | 60 | 292 | 4.0 | 11.0 | 0.00 | 0.00 | 0.00 | 77 | 1021.5 |
| 20260507012747 | 61 | 309 | 5.0 | 11.0 | 0.00 | 0.00 | 0.00 | 77 | 1021.7 |
| 20260507012515 | 60 | 309 | 5.0 | 11.0 | 0.00 | 0.00 | 0.00 | 77 | 1021.5 |
| 20260507012228 | 61 | 320 | 4.0 | 10.0 | 0.00 | 0.00 | 0.00 | 77 | 1021.7 |
| 20260507012058 | 60 | 303 | 5.0 | 12.0 | 0.00 | 0.00 | 0.00 | 77 | 1021.6 |
| 20260507011729 | 61 | 285 | 2.0 | 12.0 | 0.00 | 0.00 | 0.00 | 78 | 1021.7 |
| 20260507011540 | 60 | 333 | 3.0 | 12.0 | 0.00 | 0.00 | 0.00 | 78 | 1021.6 |
| 20260507011210 | 61 | 5 | 7.0 | 12.0 | 0.00 | 0.00 | 0.00 | 77 | 1021.8 |
| 20260507011021 | 60 | 355 | 6.0 | 11.0 | 0.00 | 0.00 | 0.00 | 77 | 1021.6 |
| 20260507010719 | 61 | 317 | 6.0 | 11.0 | 0.00 | 0.00 | 0.00 | 77 | 1021.7 |
| 20260507010604 | 60 | 313 | 4.0 | 11.0 | 0.00 | 0.00 | 0.00 | 77 | 1021.5 |
| 20260507010237 | 61 | 345 | 4.0 | 11.0 | 0.00 | 0.00 | 0.00 | 77 | 1021.8 |
| 20260507010031 | 60 | 327 | 4.0 | 11.0 | 0.00 | 0.00 | 0.00 | 77 | 1021.6 |
| 20260507005724 | 61 | 257 | 5.0 | 11.0 | 0.00 | 0.00 | 0.00 | 76 | 1021.9 |
| 20260507005502 | 61 | 276 | 5.0 | 11.0 | 0.00 | 0.00 | 0.00 | 76 | 1021.7 |
| 20260507005225 | 61 | 299 | 5.0 | 9.0 | 0.00 | 0.00 | 0.00 | 76 | 1021.8 |
| 20260507005024 | 61 | 300 | 3.0 | 10.0 | 0.00 | 0.00 | 0.00 | 76 | 1021.7 |
| 20260507004712 | 62 | 347 | 4.0 | 10.0 | 0.00 | 0.00 | 0.00 | 76 | 1021.8 |
| 20260507004547 | 61 | 270 | 3.0 | 12.0 | 0.00 | 0.00 | 0.00 | 76 | 1021.5 |
| 20260507004214 | 62 | 322 | 6.0 | 12.0 | 0.00 | 0.00 | 0.00 | 75 | 1021.8 |
| 20260507004029 | 62 | 328 | 5.0 | 12.0 | 0.00 | 0.00 | 0.00 | 75 | 1021.6 |
| 20260507003722 | 63 | 334 | 7.0 | 11.0 | 0.00 | 0.00 | 0.00 | 74 | 1021.7 |
| 20260507003510 | 62 | 348 | 5.0 | 11.0 | 0.00 | 0.00 | 0.00 | 75 | 1021.5 |
| 20260507003224 | 63 | 300 | 5.0 | 11.0 | 0.00 | 0.00 | 0.00 | 74 | 1021.7 |
| 20260507003053 | 63 | 268 | 5.0 | 11.0 | 0.00 | 0.00 | 0.00 | 74 | 1021.5 |
| 20260507002726 | 64 | 294 | 3.0 | 9.0 | 0.00 | 0.00 | 0.00 | 73 | 1021.8 |
| 20260507002535 | 64 | 329 | 3.0 | 9.0 | 0.00 | 0.00 | 0.00 | 74 | 1021.5 |
| 20260507002234 | 65 | 319 | 4.0 | 9.0 | 0.00 | 0.00 | 0.00 | 74 | 1021.7 |
| 20260507002058 | 64 | 315 | 3.0 | 9.0 | 0.00 | 0.00 | 0.00 | 75 | 1021.5 |
| 20260507001735 | 64 | 328 | 3.0 | 10.0 | 0.00 | 0.00 | 0.00 | 75 | 1021.6 |
| 20260507001519 | 64 | 290 | 4.0 | 10.0 | 0.00 | 0.00 | 0.00 | 75 | 1021.4 |
| 20260507001222 | 64 | 360 | 2.0 | 10.0 | 0.00 | 0.00 | 0.00 | 75 | 1021.7 |
| 20260507001102 | 63 | 348 | 3.0 | 10.0 | 0.00 | 0.00 | 0.00 | 74 | 1021.5 |
| 20260507000723 | 64 | 323 | 4.0 | 10.0 | 0.00 | 0.00 | 0.00 | 76 | 1021.6 |
| 20260507000523 | 63 | 316 | 2.0 | 10.0 | 0.00 | 0.00 | 0.00 | 76 | 1021.5 |
| 20260507000231 | 63 | 242 | 4.0 | 10.0 | 0.00 | 0.00 | 0.00 | 75 | 1021.7 |
| 20260507000045 | 63 | 346 | 3.0 | 10.0 | 0.00 | 0.00 | 0.00 | 76 | 1021.5 |
| 20260506235739 | 63 | 227 | 5.0 | 10.0 | 0.00 | 0.00 | 0.00 | 75 | 1021.6 |
| 20260506235506 | 63 | 201 | 5.0 | 10.0 | 0.00 | 0.00 | 0.00 | 75 | 1021.4 |
| 20260506235219 | 64 | 211 | 6.0 | 11.0 | 0.00 | 0.00 | 0.00 | 75 | 1021.6 |
| 20260506235050 | 63 | 221 | 5.0 | 11.0 | 0.00 | 0.00 | 0.00 | 74 | 1021.4 |
| 20260506234748 | 64 | 304 | 6.0 | 11.0 | 0.00 | 0.00 | 0.00 | 73 | 1021.6 |
| 20260506234518 | 64 | 236 | 3.0 | 10.0 | 0.00 | 0.00 | 0.00 | 75 | 1021.4 |
| 20260506234228 | 64 | 286 | 3.0 | 10.0 | 0.00 | 0.00 | 0.00 | 74 | 1021.6 |
| 20260506234054 | 64 | 319 | 2.0 | 10.0 | 0.00 | 0.00 | 0.00 | 74 | 1021.4 |
| 20260506233730 | 64 | 309 | 3.0 | 9.0 | 0.00 | 0.00 | 0.00 | 75 | 1021.6 |
| 20260506233535 | 63 | 32 | 3.0 | 7.0 | 0.00 | 0.00 | 0.00 | 74 | 1021.4 |
| 20260506233211 | 64 | 309 | 3.0 | 6.0 | 0.00 | 0.00 | 0.00 | 74 | 1021.6 |
| 20260506233015 | 63 | 265 | 3.0 | 7.0 | 0.00 | 0.00 | 0.00 | 76 | 1021.4 |
| 20260506232719 | 63 | 216 | 2.0 | 4.0 | 0.00 | 0.00 | 0.00 | 76 | 1021.6 |
| 20260506232559 | 63 | 242 | 1.0 | 5.0 | 0.00 | 0.00 | 0.00 | 75 | 1021.5 |
| 20260506232242 | 63 | 223 | 1.0 | 5.0 | 0.00 | 0.00 | 0.00 | 76 | 1021.7 |
| 20260506232021 | 62 | 320 | 0.0 | 5.0 | 0.00 | 0.00 | 0.00 | 75 | 1021.5 |
| 20260506231730 | 63 | 331 | 3.0 | 6.0 | 0.00 | 0.00 | 0.00 | 76 | 1021.7 |
| 20260506231503 | 62 | 318 | 2.0 | 6.0 | 0.00 | 0.00 | 0.00 | 76 | 1021.5 |
| 20260506231211 | 63 | 255 | 4.0 | 8.0 | 0.00 | 0.00 | 0.00 | 75 | 1021.7 |
| 20260506231046 | 62 | 225 | 4.0 | 8.0 | 0.00 | 0.00 | 0.00 | 76 | 1021.5 |
| 20260506230719 | 63 | 198 | 4.0 | 8.0 | 0.00 | 0.00 | 0.00 | 78 | 1021.7 |
| 20260506230507 | 62 | 235 | 5.0 | 11.0 | 0.00 | 0.00 | 0.00 | 75 | 1021.5 |
| 20260506230220 | 63 | 248 | 4.0 | 11.0 | 0.00 | 0.00 | 0.00 | 76 | 1021.8 |
| 20260506230050 | 63 | 208 | 3.0 | 11.0 | 0.00 | 0.00 | 0.00 | 76 | 1021.6 |
| 20260506225721 | 63 | 221 | 5.0 | 11.0 | 0.00 | 0.00 | 0.00 | 77 | 1021.8 |
| 20260506225531 | 62 | 258 | 2.0 | 8.0 | 0.00 | 0.00 | 0.00 | 78 | 1021.6 |
| 20260506225230 | 63 | 224 | 3.0 | 9.0 | 0.00 | 0.00 | 0.00 | 75 | 1021.8 |
| 20260506225013 | 62 | 240 | 3.0 | 12.0 | 0.00 | 0.00 | 0.00 | 76 | 1021.8 |
| 20260506224711 | 63 | 246 | 5.0 | 12.0 | 0.00 | 0.00 | 0.00 | 75 | 1021.9 |
| 20260506224612 | 63 | 231 | 5.0 | 12.0 | 0.00 | 0.00 | 0.00 | 74 | 1021.7 |
| 20260506224213 | 64 | 199 | 8.0 | 13.0 | 0.00 | 0.00 | 0.00 | 75 | 1021.9 |
| 20260506224037 | 63 | 181 | 7.0 | 10.0 | 0.00 | 0.00 | 0.00 | 75 | 1021.7 |
| 20260506223720 | 63 | 180 | 6.0 | 8.0 | 0.00 | 0.00 | 0.00 | 76 | 1022.0 |
| 20260506223600 | 63 | 247 | 5.0 | 8.0 | 0.00 | 0.00 | 0.00 | 76 | 1021.8 |
| 20260506223221 | 63 | 188 | 4.0 | 7.0 | 0.00 | 0.00 | 0.00 | 75 | 1022.2 |
| 20260506223042 | 63 | 211 | 2.0 | 7.0 | 0.00 | 0.00 | 0.00 | 77 | 1022.1 |
| 20260506222751 | 63 | 195 | 3.0 | 8.0 | 0.00 | 0.00 | 0.00 | 77 | 1022.2 |
| 20260506222504 | 63 | 223 | 4.0 | 8.0 | 0.00 | 0.00 | 0.00 | 76 | 1022.0 |
| 20260506222211 | 63 | 215 | 5.0 | 8.0 | 0.00 | 0.00 | 0.00 | 75 | 1022.2 |
| 20260506222026 | 63 | 236 | 3.0 | 8.0 | 0.00 | 0.00 | 0.00 | 79 | 1022.0 |
| 20260506221719 | 63 | 256 | 2.0 | 4.0 | 0.00 | 0.00 | 0.00 | 79 | 1022.2 |
| 20260506221506 | 62 | 298 | 1.0 | 4.0 | 0.00 | 0.00 | 0.00 | 77 | 1022.1 |
| 20260506221219 | 62 | 204 | 2.0 | 4.0 | 0.00 | 0.00 | 0.00 | 78 | 1022.3 |
| 20260506221049 | 61 | 225 | 2.0 | 4.0 | 0.00 | 0.00 | 0.00 | 77 | 1022.1 |
| 20260506220721 | 62 | 272 | 2.0 | 5.0 | 0.00 | 0.00 | 0.00 | 79 | 1022.3 |
| 20260506220531 | 62 | 292 | 2.0 | 5.0 | 0.00 | 0.00 | 0.00 | 80 | 1022.2 |
| 20260506220249 | 62 | 242 | 2.0 | 5.0 | 0.00 | 0.00 | 0.00 | 81 | 1022.3 |
| 20260506220105 | 61 | 262 | 2.0 | 6.0 | 0.00 | 0.00 | 0.00 | 81 | 1022.1 |
| 20260506215757 | 61 | 246 | 2.0 | 5.0 | 0.00 | 0.00 | 0.00 | 81 | 1022.3 |
| 20260506215513 | 61 | 237 | 2.0 | 5.0 | 0.00 | 0.00 | 0.00 | 80 | 1022.1 |
| 20260506215217 | 61 | 238 | 3.0 | 5.0 | 0.00 | 0.00 | 0.00 | 79 | 1022.3 |
| 20260506215057 | 61 | 242 | 3.0 | 6.0 | 0.00 | 0.00 | 0.00 | 79 | 1022.1 |
| 20260506214717 | 62 | 219 | 1.0 | 4.0 | 0.00 | 0.00 | 0.00 | 81 | 1022.3 |
| 20260506214518 | 61 | 329 | 0.0 | 6.0 | 0.00 | 0.00 | 0.00 | 81 | 1022.1 |
| 20260506214221 | 61 | 208 | 3.0 | 6.0 | 0.00 | 0.00 | 0.00 | 80 | 1022.3 |
| 20260506214039 | 61 | 203 | 2.0 | 6.0 | 0.00 | 0.00 | 0.00 | 80 | 1022.1 |
| 20260506213722 | 61 | 200 | 4.0 | 6.0 | 0.00 | 0.00 | 0.00 | 80 | 1022.4 |
| 20260506213521 | 61 | 223 | 2.0 | 7.0 | 0.00 | 0.00 | 0.00 | 82 | 1022.2 |
| 20260506213214 | 61 | 261 | 4.0 | 7.0 | 0.00 | 0.00 | 0.00 | 81 | 1022.3 |
| 20260506213003 | 61 | 261 | 2.0 | 4.0 | 0.00 | 0.00 | 0.00 | 82 | 1022.2 |
| 20260506212716 | 61 | 300 | 2.0 | 3.0 | 0.00 | 0.00 | 0.00 | 83 | 1022.4 |
| 20260506212546 | 60 | 260 | 1.0 | 3.0 | 0.00 | 0.00 | 0.00 | 82 | 1022.1 |
| 20260506212217 | 61 | 257 | 1.0 | 3.0 | 0.00 | 0.00 | 0.00 | 83 | 1022.3 |
| 20260506212027 | 60 | 245 | 1.0 | 3.0 | 0.00 | 0.00 | 0.00 | 83 | 1022.1 |
| 20260506211721 | 60 | 245 | 1.0 | 7.0 | 0.00 | 0.00 | 0.00 | 83 | 1022.3 |
| 20260506211555 | 60 | 244 | 1.0 | 7.0 | 0.00 | 0.00 | 0.00 | 82 | 1022.1 |
| 20260506211249 | 60 | 238 | 2.0 | 7.0 | 0.00 | 0.00 | 0.00 | 83 | 1022.4 |
| 20260506211009 | 60 | 245 | 1.0 | 6.0 | 0.00 | 0.00 | 0.00 | 83 | 1022.3 |
| 20260506210728 | 60 | 243 | 3.0 | 5.0 | 0.00 | 0.00 | 0.00 | 82 | 1022.4 |
| 20260506210553 | 60 | 226 | 3.0 | 5.0 | 0.00 | 0.00 | 0.00 | 83 | 1022.3 |
| 20260506210210 | 60 | 215 | 1.0 | 4.0 | 0.00 | 0.00 | 0.00 | 83 | 1022.5 |
| 20260506210034 | 60 | 215 | 0.0 | 4.0 | 0.00 | 0.00 | 0.00 | 83 | 1022.3 |
| 20260506205711 | 60 | 245 | 2.0 | 5.0 | 0.00 | 0.00 | 0.00 | 84 | 1022.5 |
| 20260506205515 | 59 | 271 | 1.0 | 7.0 | 0.00 | 0.00 | 0.00 | 84 | 1022.3 |
| 20260506205219 | 60 | 236 | 3.0 | 7.0 | 0.00 | 0.00 | 0.00 | 83 | 1022.4 |
| 20260506205039 | 59 | 226 | 3.0 | 7.0 | 0.00 | 0.00 | 0.00 | 83 | 1022.3 |
| 20260506204720 | 60 | 225 | 3.0 | 7.0 | 0.00 | 0.00 | 0.00 | 85 | 1022.5 |
| 20260506204519 | 59 | 207 | 0.0 | 3.0 | 0.00 | 0.00 | 0.00 | 84 | 1022.3 |
| 20260506204229 | 60 | 106 | 1.0 | 5.0 | 0.00 | 0.00 | 0.00 | 84 | 1022.5 |
| 20260506204000 | 59 | 249 | 0.0 | 5.0 | 0.00 | 0.00 | 0.00 | 85 | 1022.4 |
| 20260506203710 | 60 | 249 | 2.0 | 5.0 | 0.00 | 0.00 | 0.00 | 86 | 1022.6 |
| 20260506203543 | 59 | 178 | 3.0 | 5.0 | 0.00 | 0.00 | 0.00 | 86 | 1022.4 |
| 20260506203210 | 59 | 213 | 3.0 | 5.0 | 0.00 | 0.00 | 0.00 | 86 | 1022.5 |
| 20260506203026 | 59 | 230 | 3.0 | 5.0 | 0.00 | 0.00 | 0.00 | 85 | 1022.4 |
| 20260506202719 | 59 | 228 | 2.0 | 7.0 | 0.00 | 0.00 | 0.00 | 85 | 1022.5 |
| 20260506202506 | 59 | 240 | 1.0 | 8.0 | 0.00 | 0.00 | 0.00 | 86 | 1022.4 |
| 20260506202220 | 59 | 248 | 3.0 | 8.0 | 0.00 | 0.00 | 0.00 | 85 | 1022.5 |
| 20260506202049 | 59 | 241 | 3.0 | 8.0 | 0.00 | 0.00 | 0.00 | 86 | 1022.3 |
| 20260506201749 | 59 | 277 | 4.0 | 8.0 | 0.00 | 0.00 | 0.00 | 86 | 1022.4 |
| 20260506201513 | 59 | 213 | 1.0 | 5.0 | 0.00 | 0.00 | 0.00 | 86 | 1022.2 |
| 20260506201229 | 59 | 198 | 3.0 | 5.0 | 0.00 | 0.00 | 0.00 | 86 | 1022.4 |
| 20260506201053 | 59 | 205 | 1.0 | 5.0 | 0.00 | 0.00 | 0.00 | 87 | 1022.2 |
| 20260506200710 | 59 | 249 | 2.0 | 5.0 | 0.00 | 0.00 | 0.00 | 87 | 1022.3 |
| 20260506200534 | 58 | 206 | 2.0 | 5.0 | 0.00 | 0.00 | 0.00 | 86 | 1022.1 |
| 20260506200212 | 58 | 238 | 3.0 | 6.0 | 0.00 | 0.00 | 0.00 | 87 | 1022.4 |
| 20260506200016 | 58 | 211 | 1.0 | 6.0 | 0.00 | 0.00 | 0.00 | 87 | 1022.1 |
| 20260506195720 | 58 | 213 | 3.0 | 6.0 | 0.00 | 0.00 | 0.00 | 88 | 1022.4 |
| 20260506195559 | 58 | 215 | 4.0 | 6.0 | 0.00 | 0.00 | 0.00 | 88 | 1022.1 |
| 20260506195222 | 58 | 201 | 3.0 | 5.0 | 0.00 | 0.00 | 0.00 | 88 | 1022.3 |
| 20260506195041 | 58 | 248 | 1.0 | 6.0 | 0.00 | 0.00 | 0.00 | 88 | 1022.2 |
| 20260506194723 | 58 | 194 | 3.0 | 6.0 | 0.00 | 0.00 | 0.00 | 88 | 1022.4 |
| 20260506194531 | 57 | 173 | 2.0 | 6.0 | 0.00 | 0.00 | 0.00 | 88 | 1022.3 |
| 20260506194216 | 58 | 225 | 3.0 | 6.0 | 0.00 | 0.00 | 0.00 | 88 | 1022.5 |
| 20260506194006 | 57 | 277 | 1.0 | 5.0 | 0.00 | 0.00 | 0.00 | 88 | 1022.4 |
| 20260506193712 | 58 | 261 | 3.0 | 5.0 | 0.00 | 0.00 | 0.00 | 87 | 1022.5 |
| 20260506193525 | 58 | 233 | 3.0 | 5.0 | 0.00 | 0.00 | 0.00 | 87 | 1022.2 |
| 20260506193220 | 58 | 275 | 1.0 | 4.0 | 0.00 | 0.00 | 0.00 | 87 | 1022.3 |
| 20260506193007 | 57 | 214 | 1.0 | 4.0 | 0.00 | 0.00 | 0.00 | 87 | 1022.3 |
| 20260506192722 | 58 | 217 | 3.0 | 5.0 | 0.00 | 0.00 | 0.00 | 87 | 1022.5 |
| 20260506192550 | 58 | 219 | 2.0 | 5.0 | 0.00 | 0.00 | 0.00 | 87 | 1022.3 |
| 20260506192223 | 58 | 234 | 3.0 | 5.0 | 0.00 | 0.00 | 0.00 | 86 | 1022.5 |
| 20260506192034 | 58 | 236 | 2.0 | 5.0 | 0.00 | 0.00 | 0.00 | 86 | 1022.3 |
| 20260506191732 | 58 | 279 | 3.0 | 4.0 | 0.00 | 0.00 | 0.00 | 86 | 1022.6 |
| 20260506191555 | 58 | 305 | 2.0 | 4.0 | 0.00 | 0.00 | 0.00 | 86 | 1022.5 |
| 20260506191212 | 58 | 292 | 2.0 | 4.0 | 0.00 | 0.00 | 0.00 | 87 | 1022.4 |
| 20260506191037 | 58 | 343 | 2.0 | 4.0 | 0.00 | 0.00 | 0.00 | 87 | 1022.5 |
| 20260506190741 | 58 | 229 | 2.0 | 4.0 | 0.00 | 0.00 | 0.00 | 86 | 1022.5 |
| 20260506190559 | 58 | 227 | 2.0 | 4.0 | 0.00 | 0.00 | 0.00 | 86 | 1022.3 |
| 20260506190241 | 58 | 265 | 1.0 | 3.0 | 0.00 | 0.00 | 0.00 | 87 | 1022.5 |
| 20260506190019 | 57 | 231 | 1.0 | 4.0 | 0.00 | 0.00 | 0.00 | 87 | 1022.3 |
| 20260506185748 | 58 | 202 | 2.0 | 4.0 | 0.00 | 0.00 | 0.00 | 86 | 1022.4 |
| 20260506185540 | 57 | 240 | 1.0 | 4.0 | 0.00 | 0.00 | 0.00 | 87 | 1022.2 |
| 20260506185235 | 58 | 271 | 2.0 | 4.0 | 0.00 | 0.00 | 0.00 | 86 | 1022.3 |
| 20260506185022 | 57 | 257 | 1.0 | 4.0 | 0.00 | 0.00 | 0.00 | 87 | 1022.2 |
| 20260506184716 | 58 | 247 | 2.0 | 4.0 | 0.00 | 0.00 | 0.00 | 87 | 1022.4 |
| 20260506184503 | 57 | 244 | 2.0 | 4.0 | 0.00 | 0.00 | 0.00 | 87 | 1022.1 |
| 20260506184217 | 58 | 201 | 2.0 | 5.0 | 0.00 | 0.00 | 0.00 | 87 | 1022.4 |
| 20260506184047 | 57 | 201 | 2.0 | 5.0 | 0.00 | 0.00 | 0.00 | 87 | 1022.2 |
| 20260506183746 | 58 | 259 | 1.0 | 5.0 | 0.00 | 0.00 | 0.00 | 88 | 1022.4 |
| 20260506183507 | 57 | 229 | 2.0 | 5.0 | 0.00 | 0.00 | 0.00 | 87 | 1022.2 |
| 20260506183226 | 58 | 224 | 3.0 | 5.0 | 0.00 | 0.00 | 0.00 | 87 | 1022.3 |
| 20260506183030 | 57 | 225 | 2.0 | 5.0 | 0.00 | 0.00 | 0.00 | 87 | 1022.2 |
| 20260506182734 | 58 | 282 | 3.0 | 5.0 | 0.00 | 0.00 | 0.00 | 87 | 1022.4 |
| 20260506182551 | 57 | 339 | 1.0 | 5.0 | 0.00 | 0.00 | 0.00 | 88 | 1022.2 |
| 20260506182214 | 58 | 321 | 2.0 | 5.0 | 0.00 | 0.00 | 0.00 | 87 | 1022.4 |
| 20260506182033 | 57 | 269 | 2.0 | 5.0 | 0.00 | 0.00 | 0.00 | 87 | 1022.3 |
| 20260506181716 | 58 | 296 | 1.0 | 4.0 | 0.00 | 0.00 | 0.00 | 88 | 1022.4 |
| 20260506181516 | 57 | 302 | 0.0 | 4.0 | 0.00 | 0.00 | 0.00 | 89 | 1022.2 |
| 20260506181224 | 57 | 260 | 2.0 | 5.0 | 0.00 | 0.00 | 0.00 | 88 | 1022.2 |
| 20260506181058 | 57 | 186 | 2.0 | 5.0 | 0.00 | 0.00 | 0.00 | 87 | 1022.1 |
| 20260506180725 | 57 | 225 | 3.0 | 5.0 | 0.00 | 0.00 | 0.00 | 87 | 1022.2 |
| 20260506180541 | 57 | 227 | 3.0 | 5.0 | 0.00 | 0.00 | 0.00 | 88 | 1022.0 |
| 20260506180213 | 57 | 177 | 0.0 | 4.0 | 0.00 | 0.00 | 0.00 | 87 | 1022.3 |
| 20260506180116 | 57 | 177 | 0.0 | 4.0 | 0.00 | 0.00 | 0.00 | 87 | 1022.1 |
| 20260506175734 | 57 | 177 | 3.0 | 4.0 | 0.00 | 0.00 | 0.00 | 88 | 1022.2 |
| 20260506175525 | 57 | 229 | 1.0 | 4.0 | 0.00 | 0.00 | 0.00 | 88 | 1022.1 |
| 20260506175221 | 57 | 313 | 2.0 | 4.0 | 0.00 | 0.00 | 0.00 | 88 | 1022.3 |
| 20260506175004 | 57 | 299 | 2.0 | 4.0 | 0.00 | 0.00 | 0.00 | 88 | 1022.2 |
| 20260506174743 | 57 | 243 | 2.0 | 5.0 | 0.00 | 0.00 | 0.00 | 89 | 1022.3 |
| 20260506174526 | 56 | 228 | 1.0 | 5.0 | 0.00 | 0.00 | 0.00 | 88 | 1022.1 |
| 20260506174231 | 57 | 275 | 2.0 | 7.0 | 0.00 | 0.00 | 0.00 | 89 | 1022.3 |
| 20260506174008 | 56 | 257 | 2.0 | 7.0 | 0.00 | 0.00 | 0.00 | 89 | 1022.0 |
| 20260506173711 | 57 | 223 | 3.0 | 7.0 | 0.00 | 0.00 | 0.00 | 88 | 1022.1 |
| 20260506173530 | 56 | 248 | 3.0 | 7.0 | 0.00 | 0.00 | 0.00 | 88 | 1021.9 |
| 20260506173213 | 56 | 254 | 2.0 | 6.0 | 0.00 | 0.00 | 0.00 | 90 | 1022.2 |
| 20260506173012 | 56 | 248 | 2.0 | 6.0 | 0.00 | 0.00 | 0.00 | 89 | 1021.9 |
| 20260506172721 | 56 | 217 | 3.0 | 6.0 | 0.00 | 0.00 | 0.00 | 89 | 1022.0 |
| 20260506172534 | 56 | 215 | 3.0 | 6.0 | 0.00 | 0.00 | 0.00 | 89 | 1021.9 |
| 20260506172229 | 56 | 208 | 3.0 | 5.0 | 0.00 | 0.00 | 0.00 | 89 | 1021.9 |
| 20260506172015 | 56 | 222 | 3.0 | 5.0 | 0.00 | 0.00 | 0.00 | 88 | 1021.8 |
| 20260506171750 | 56 | 229 | 2.0 | 4.0 | 0.00 | 0.00 | 0.00 | 88 | 1022.0 |
| 20260506171541 | 56 | 237 | 2.0 | 4.0 | 0.00 | 0.00 | 0.00 | 89 | 1021.8 |
| 20260506171210 | 56 | 249 | 2.0 | 4.0 | 0.00 | 0.00 | 0.00 | 89 | 1022.0 |
| 20260506171020 | 55 | 236 | 2.0 | 4.0 | 0.00 | 0.00 | 0.00 | 88 | 1021.8 |
| 20260506170719 | 56 | 234 | 3.0 | 4.0 | 0.00 | 0.00 | 0.00 | 89 | 1021.9 |
| 20260506170500 | 56 | 232 | 2.0 | 4.0 | 0.00 | 0.00 | 0.00 | 89 | 1021.8 |
| 20260506170220 | 56 | 231 | 3.0 | 4.0 | 0.00 | 0.00 | 0.00 | 89 | 1021.9 |
| 20260506170050 | 56 | 239 | 1.0 | 3.0 | 0.00 | 0.00 | 0.00 | 90 | 1021.8 |
| 20260506165721 | 56 | 325 | 0.0 | 3.0 | 0.00 | 0.00 | 0.00 | 90 | 1021.8 |
| 20260506165525 | 55 | 325 | 0.0 | 3.0 | 0.00 | 0.00 | 0.00 | 90 | 1021.7 |
| 20260506165229 | 55 | 325 | 2.0 | 3.0 | 0.00 | 0.00 | 0.00 | 90 | 1021.9 |
| 20260506165047 | 55 | 321 | 0.0 | 3.0 | 0.00 | 0.00 | 0.00 | 90 | 1021.7 |
| 20260506164731 | 55 | 251 | 1.0 | 4.0 | 0.00 | 0.00 | 0.00 | 90 | 1021.9 |
| 20260506164513 | 55 | 249 | 2.0 | 4.0 | 0.00 | 0.00 | 0.00 | 90 | 1021.8 |
| 20260506164219 | 55 | 276 | 2.0 | 5.0 | 0.00 | 0.00 | 0.00 | 90 | 1022.0 |
| 20260506164052 | 55 | 297 | 2.0 | 5.0 | 0.00 | 0.00 | 0.00 | 90 | 1021.9 |
| 20260506163747 | 55 | 338 | 3.0 | 5.0 | 0.00 | 0.00 | 0.00 | 90 | 1021.9 |
| 20260506163512 | 55 | 355 | 2.0 | 6.0 | 0.00 | 0.00 | 0.00 | 91 | 1021.8 |
| 20260506163227 | 55 | 302 | 2.0 | 6.0 | 0.00 | 0.00 | 0.00 | 91 | 1022.0 |
| 20260506163056 | 55 | 311 | 2.0 | 6.0 | 0.00 | 0.00 | 0.00 | 91 | 1021.8 |
| 20260506162728 | 55 | 267 | 3.0 | 6.0 | 0.00 | 0.00 | 0.00 | 91 | 1021.9 |
| 20260506162537 | 55 | 241 | 2.0 | 5.0 | 0.00 | 0.00 | 0.00 | 90 | 1021.7 |
| 20260506162209 | 56 | 321 | 2.0 | 5.0 | 0.00 | 0.00 | 0.00 | 92 | 1021.9 |
| 20260506162019 | 55 | 269 | 2.0 | 5.0 | 0.00 | 0.00 | 0.00 | 91 | 1021.7 |
| 20260506161738 | 55 | 306 | 3.0 | 5.0 | 0.00 | 0.00 | 0.00 | 92 | 1021.8 |
| 20260506161541 | 55 | 221 | 2.0 | 5.0 | 0.00 | 0.00 | 0.00 | 92 | 1021.6 |
| 20260506161225 | 55 | 206 | 3.0 | 4.0 | 0.00 | 0.00 | 0.00 | 92 | 1021.8 |
| 20260506161104 | 55 | 252 | 2.0 | 4.0 | 0.00 | 0.00 | 0.00 | 92 | 1021.7 |
| 20260506160726 | 55 | 238 | 1.0 | 3.0 | 0.00 | 0.00 | 0.00 | 92 | 1021.6 |
| 20260506160543 | 54 | 238 | 1.0 | 3.0 | 0.00 | 0.00 | 0.00 | 92 | 1021.5 |
| 20260506160226 | 55 | 238 | 3.0 | 3.0 | 0.00 | 0.00 | 0.00 | 92 | 1021.5 |
| 20260506160035 | 54 | 198 | 1.0 | 3.0 | 0.00 | 0.00 | 0.00 | 92 | 1021.3 |
| 20260506155735 | 55 | 232 | 1.0 | 5.0 | 0.00 | 0.00 | 0.00 | 92 | 1021.4 |
| 20260506155507 | 54 | 232 | 1.0 | 7.0 | 0.00 | 0.00 | 0.00 | 92 | 1021.3 |
| 20260506155217 | 55 | 229 | 2.0 | 7.0 | 0.00 | 0.00 | 0.00 | 92 | 1021.4 |
| 20260506155049 | 54 | 208 | 2.0 | 7.0 | 0.00 | 0.00 | 0.00 | 93 | 1021.2 |
| 20260506154718 | 55 | 215 | 3.0 | 7.0 | 0.00 | 0.00 | 0.00 | 93 | 1021.1 |
| 20260506154531 | 54 | 194 | 2.0 | 8.0 | 0.00 | 0.00 | 0.00 | 93 | 1021.0 |
| 20260506154227 | 54 | 159 | 2.0 | 8.0 | 0.00 | 0.00 | 0.00 | 93 | 1021.0 |
| 20260506154013 | 54 | 200 | 4.0 | 8.0 | 0.00 | 0.00 | 0.00 | 93 | 1020.9 |
| 20260506153728 | 54 | 161 | 3.0 | 8.0 | 0.00 | 0.00 | 0.00 | 94 | 1021.0 |
| 20260506153556 | 54 | 152 | 2.0 | 4.0 | 0.00 | 0.00 | 0.00 | 94 | 1020.9 |
| 20260506153209 | 54 | 113 | 1.0 | 3.0 | 0.00 | 0.00 | 0.00 | 94 | 1021.1 |
| 20260506153037 | 53 | 108 | 1.0 | 3.0 | 0.00 | 0.00 | 0.00 | 94 | 1021.0 |
| 20260506152739 | 53 | 140 | 2.0 | 3.0 | 0.00 | 0.00 | 0.00 | 94 | 1021.1 |
| 20260506152601 | 53 | 106 | 1.0 | 3.0 | 0.00 | 0.00 | 0.00 | 95 | 1021.1 |
| 20260506152219 | 53 | 173 | 1.0 | 3.0 | 0.00 | 0.00 | 0.00 | 94 | 1021.4 |
| 20260506152042 | 53 | 172 | 0.0 | 3.0 | 0.00 | 0.00 | 0.00 | 94 | 1021.4 |
| 20260506151721 | 53 | 137 | 1.0 | 3.0 | 0.00 | 0.00 | 0.00 | 94 | 1021.3 |
| 20260506151524 | 52 | 142 | 1.0 | 3.0 | 0.00 | 0.00 | 0.00 | 94 | 1021.4 |
| 20260506151229 | 53 | 180 | 2.0 | 3.0 | 0.00 | 0.00 | 0.00 | 94 | 1021.6 |
| 20260506151005 | 52 | 180 | 0.0 | 2.0 | 0.00 | 0.00 | 0.00 | 94 | 1021.5 |
| 20260506150711 | 53 | 228 | 1.0 | 2.0 | 0.00 | 0.00 | 0.00 | 94 | 1021.6 |
| 20260506150548 | 52 | 229 | 0.0 | 2.0 | 0.00 | 0.00 | 0.00 | 94 | 1021.6 |
| 20260506150212 | 53 | 229 | 1.0 | 2.0 | 0.00 | 0.00 | 0.00 | 94 | 1021.7 |
| 20260506150030 | 52 | 228 | 1.0 | 2.0 | 0.00 | 0.00 | 0.00 | 94 | 1021.6 |
| 20260506145720 | 53 | 228 | 1.0 | 2.0 | 0.00 | 0.00 | 0.00 | 94 | 1021.8 |
| 20260506145553 | 52 | 237 | 1.0 | 2.0 | 0.00 | 0.00 | 0.00 | 94 | 1021.6 |
| 20260506145248 | 52 | 228 | 1.0 | 3.0 | 0.00 | 0.00 | 0.00 | 94 | 1021.7 |
| 20260506145012 | 52 | 228 | 0.0 | 3.0 | 0.00 | 0.00 | 0.00 | 94 | 1021.5 |
| 20260506144728 | 53 | 228 | 1.0 | 3.0 | 0.00 | 0.00 | 0.00 | 94 | 1021.6 |
| 20260506144537 | 52 | 228 | 1.0 | 3.0 | 0.00 | 0.00 | 0.00 | 95 | 1021.5 |
| 20260506144236 | 52 | 228 | 1.0 | 2.0 | 0.00 | 0.00 | 0.00 | 95 | 1021.6 |
| 20260506144058 | 52 | 228 | 0.0 | 2.0 | 0.00 | 0.00 | 0.00 | 95 | 1021.4 |
| 20260506143716 | 52 | 228 | 1.0 | 2.0 | 0.00 | 0.00 | 0.00 | 95 | 1021.3 |
| 20260506143539 | 52 | 228 | 0.0 | 2.0 | 0.00 | 0.00 | 0.00 | 95 | 1021.3 |
| 20260506143218 | 52 | 228 | 0.0 | 2.0 | 0.00 | 0.00 | 0.00 | 95 | 1021.3 |
| 20260506143021 | 52 | 228 | 0.0 | 2.0 | 0.00 | 0.00 | 0.00 | 95 | 1021.2 |
| 20260506142726 | 52 | 228 | 1.0 | 2.0 | 0.00 | 0.00 | 0.00 | 95 | 1021.4 |
| 20260506142504 | 52 | 228 | 1.0 | 2.0 | 0.00 | 0.00 | 0.00 | 94 | 1021.3 |
| 20260506142228 | 52 | 228 | 1.0 | 2.0 | 0.00 | 0.00 | 0.00 | 94 | 1021.4 |
| 20260506142050 | 52 | 228 | 0.0 | 2.0 | 0.00 | 0.00 | 0.00 | 94 | 1021.1 |
| 20260506141709 | 52 | 228 | 1.0 | 2.0 | 0.00 | 0.00 | 0.00 | 94 | 1021.1 |
| 20260506141527 | 52 | 228 | 1.0 | 2.0 | 0.00 | 0.00 | 0.00 | 94 | 1021.0 |
| 20260506141237 | 52 | 228 | 0.0 | 1.0 | 0.00 | 0.01 | 0.00 | 95 | 1021.0 |
| 20260506141049 | 52 | 228 | 0.0 | 1.0 | 0.00 | 0.01 | 0.00 | 95 | 1020.9 |
| 20260506140717 | 52 | 228 | 0.0 | 0.0 | 0.00 | 0.01 | 0.00 | 95 | 1020.9 |
| 20260506140530 | 52 | 228 | 0.0 | 1.0 | 0.00 | 0.01 | 0.00 | 95 | 1020.8 |
| 20260506140226 | 52 | 228 | 0.0 | 3.0 | 0.00 | 0.01 | 0.00 | 95 | 1020.8 |
| 20260506140012 | 52 | 228 | 0.0 | 3.0 | 0.00 | 0.01 | 0.00 | 94 | 1020.8 |
| 20260506135747 | 52 | 228 | 1.0 | 3.0 | 0.00 | 0.01 | 0.00 | 94 | 1020.9 |
| 20260506135534 | 52 | 228 | 1.0 | 3.0 | 0.00 | 0.01 | 0.00 | 94 | 1020.8 |
| 20260506135234 | 52 | 228 | 2.0 | 3.0 | 0.00 | 0.01 | 0.00 | 94 | 1020.9 |
| 20260506135018 | 52 | 230 | 1.0 | 3.0 | 0.00 | 0.01 | 0.00 | 94 | 1020.8 |
| 20260506134716 | 52 | 303 | 1.0 | 2.0 | 0.00 | 0.01 | 0.00 | 94 | 1020.9 |
| 20260506134600 | 52 | 303 | 1.0 | 2.0 | 0.00 | 0.01 | 0.00 | 94 | 1020.8 |
| 20260506134237 | 52 | 303 | 1.0 | 2.0 | 0.00 | 0.01 | 0.00 | 94 | 1020.8 |
| 20260506134020 | 52 | 303 | 0.0 | 2.0 | 0.00 | 0.01 | 0.00 | 94 | 1020.6 |
| 20260506133724 | 52 | 303 | 0.0 | 2.0 | 0.00 | 0.01 | 0.00 | 94 | 1020.7 |
| 20260506133602 | 52 | 303 | 0.0 | 2.0 | 0.00 | 0.01 | 0.00 | 94 | 1020.7 |
| 20260506133242 | 52 | 304 | 1.0 | 3.0 | 0.00 | 0.01 | 0.00 | 95 | 1020.7 |
| 20260506133023 | 52 | 304 | 1.0 | 3.0 | 0.00 | 0.01 | 0.00 | 95 | 1020.6 |
| 20260506132729 | 52 | 264 | 1.0 | 3.0 | 0.00 | 0.01 | 0.00 | 95 | 1020.7 |
| 20260506132504 | 52 | 264 | 1.0 | 3.0 | 0.00 | 0.01 | 0.00 | 95 | 1020.6 |
| 20260506132231 | 52 | 266 | 2.0 | 3.0 | 0.00 | 0.01 | 0.00 | 95 | 1020.7 |
| 20260506132030 | 52 | 268 | 1.0 | 3.0 | 0.00 | 0.01 | 0.00 | 94 | 1020.6 |
| 20260506131711 | 53 | 275 | 1.0 | 3.0 | 0.00 | 0.01 | 0.00 | 94 | 1020.7 |
| 20260506131520 | 52 | 280 | 1.0 | 3.0 | 0.00 | 0.01 | 0.00 | 94 | 1020.6 |
| 20260506131220 | 53 | 292 | 1.0 | 3.0 | 0.00 | 0.01 | 0.00 | 94 | 1020.5 |
| 20260506131052 | 52 | 246 | 0.0 | 2.0 | 0.00 | 0.01 | 0.00 | 94 | 1020.5 |
| 20260506130727 | 53 | 246 | 1.0 | 2.0 | 0.00 | 0.01 | 0.00 | 94 | 1020.5 |
| 20260506130513 | 52 | 246 | 0.0 | 2.0 | 0.00 | 0.01 | 0.00 | 94 | 1020.2 |
| 20260506130249 | 53 | 246 | 1.0 | 2.0 | 0.00 | 0.01 | 0.00 | 94 | 1020.4 |
| 20260506130039 | 52 | 246 | 0.0 | 2.0 | 0.00 | 0.01 | 0.00 | 94 | 1020.2 |
| 20260506125736 | 53 | 246 | 1.0 | 2.0 | 0.00 | 0.01 | 0.00 | 94 | 1020.4 |
| 20260506125515 | 52 | 227 | 0.0 | 2.0 | 0.00 | 0.01 | 0.00 | 94 | 1020.3 |
| 20260506125217 | 53 | 227 | 1.0 | 1.0 | 0.00 | 0.01 | 0.00 | 94 | 1020.3 |
| 20260506125059 | 52 | 227 | 0.0 | 2.0 | 0.00 | 0.01 | 0.00 | 94 | 1020.2 |
| 20260506124718 | 53 | 227 | 0.0 | 2.0 | 0.00 | 0.01 | 0.00 | 94 | 1020.3 |
| 20260506124541 | 52 | 227 | 0.0 | 2.0 | 0.00 | 0.01 | 0.00 | 94 | 1020.1 |
| 20260506124227 | 53 | 227 | 1.0 | 2.0 | 0.00 | 0.01 | 0.00 | 94 | 1020.3 |
| 20260506124001 | 53 | 227 | 0.0 | 2.0 | 0.00 | 0.01 | 0.00 | 94 | 1020.1 |
| 20260506123728 | 53 | 227 | 0.0 | 2.0 | 0.00 | 0.01 | 0.00 | 94 | 1020.2 |
| 20260506123545 | 53 | 227 | 0.0 | 2.0 | 0.00 | 0.01 | 0.00 | 94 | 1020.1 |
| 20260506123209 | 53 | 227 | 1.0 | 2.0 | 0.00 | 0.01 | 0.00 | 94 | 1020.2 |
| 20260506123027 | 53 | 227 | 0.0 | 2.0 | 0.00 | 0.01 | 0.00 | 94 | 1020.0 |
| 20260506122710 | 53 | 227 | 1.0 | 2.0 | 0.00 | 0.01 | 0.00 | 94 | 1020.3 |
| 20260506122508 | 53 | 227 | 1.0 | 3.0 | 0.00 | 0.01 | 0.00 | 94 | 1020.1 |
| 20260506122219 | 53 | 242 | 1.0 | 3.0 | 0.00 | 0.01 | 0.00 | 94 | 1020.2 |
| 20260506122051 | 53 | 242 | 0.0 | 3.0 | 0.00 | 0.01 | 0.00 | 94 | 1020.1 |
| 20260506121721 | 53 | 242 | 1.0 | 3.0 | 0.00 | 0.01 | 0.00 | 94 | 1020.3 |
| 20260506121534 | 53 | 252 | 0.0 | 2.0 | 0.00 | 0.01 | 0.00 | 94 | 1020.1 |
| 20260506121229 | 53 | 252 | 1.0 | 2.0 | 0.00 | 0.01 | 0.00 | 94 | 1020.3 |
| 20260506121018 | 53 | 252 | 0.0 | 2.0 | 0.00 | 0.01 | 0.00 | 94 | 1020.2 |
| 20260506120711 | 53 | 252 | 1.0 | 2.0 | 0.00 | 0.01 | 0.00 | 94 | 1020.3 |
| 20260506120600 | 53 | 252 | 0.0 | 2.0 | 0.00 | 0.01 | 0.00 | 94 | 1020.1 |
| 20260506120232 | 53 | 252 | 0.0 | 0.0 | 0.00 | 0.01 | 0.00 | 94 | 1020.4 |
| 20260506120020 | 53 | 252 | 0.0 | 0.0 | 0.00 | 0.01 | 0.00 | 94 | 1020.2 |
| 20260506115741 | 53 | 252 | 0.0 | 0.0 | 0.00 | 0.01 | 0.00 | 94 | 1020.3 |
| 20260506115541 | 53 | 252 | 0.0 | 0.0 | 0.00 | 0.01 | 0.00 | 94 | 1020.1 |
| 20260506115248 | 53 | 252 | 0.0 | 0.0 | 0.00 | 0.01 | 0.00 | 94 | 1020.3 |
| 20260506115001 | 53 | 252 | 0.0 | 0.0 | 0.00 | 0.01 | 0.00 | 94 | 1020.2 |
| 20260506114749 | 53 | 252 | 0.0 | 0.0 | 0.00 | 0.01 | 0.00 | 94 | 1020.3 |
| 20260506114525 | 53 | 252 | 0.0 | 0.0 | 0.00 | 0.01 | 0.00 | 94 | 1020.1 |
| 20260506114237 | 53 | 252 | 0.0 | 0.0 | 0.00 | 0.01 | 0.00 | 93 | 1020.2 |
| 20260506114048 | 53 | 252 | 0.0 | 0.0 | 0.00 | 0.01 | 0.00 | 93 | 1020.0 |
| 20260506113745 | 53 | 252 | 0.0 | 1.0 | 0.00 | 0.01 | 0.00 | 93 | 1020.2 |
| 20260506113508 | 53 | 252 | 0.0 | 1.0 | 0.00 | 0.01 | 0.00 | 93 | 1020.0 |
| 20260506113225 | 53 | 252 | 0.0 | 1.0 | 0.00 | 0.01 | 0.00 | 93 | 1020.1 |
| 20260506113052 | 53 | 252 | 0.0 | 1.0 | 0.00 | 0.01 | 0.00 | 93 | 1019.9 |
| 20260506112726 | 53 | 252 | 0.0 | 2.0 | 0.00 | 0.01 | 0.00 | 93 | 1020.1 |
| 20260506112535 | 53 | 252 | 0.0 | 2.0 | 0.00 | 0.01 | 0.00 | 93 | 1020.0 |
| 20260506112235 | 53 | 252 | 0.0 | 2.0 | 0.00 | 0.01 | 0.00 | 93 | 1020.1 |
| 20260506112015 | 53 | 252 | 0.0 | 2.0 | 0.00 | 0.01 | 0.00 | 93 | 1019.9 |
| 20260506111736 | 53 | 252 | 1.0 | 2.0 | 0.00 | 0.01 | 0.00 | 93 | 1019.9 |
| 20260506111537 | 53 | 252 | 0.0 | 2.0 | 0.00 | 0.01 | 0.00 | 93 | 1019.8 |
| 20260506111217 | 53 | 252 | 0.0 | 2.0 | 0.00 | 0.01 | 0.00 | 93 | 1019.8 |
| 20260506111021 | 53 | 252 | 0.0 | 2.0 | 0.00 | 0.01 | 0.00 | 93 | 1019.8 |
| 20260506110725 | 54 | 252 | 0.0 | 1.0 | 0.00 | 0.01 | 0.00 | 93 | 1019.8 |
| 20260506110602 | 53 | 252 | 0.0 | 1.0 | 0.00 | 0.01 | 0.00 | 93 | 1019.7 |
| 20260506110227 | 54 | 252 | 0.0 | 1.0 | 0.00 | 0.01 | 0.00 | 93 | 1019.8 |
| 20260506110044 | 53 | 252 | 0.0 | 1.0 | 0.00 | 0.01 | 0.00 | 93 | 1019.7 |
| 20260506105728 | 54 | 252 | 0.0 | 2.0 | 0.00 | 0.01 | 0.00 | 93 | 1019.7 |
| 20260506105525 | 53 | 252 | 0.0 | 2.0 | 0.00 | 0.01 | 0.00 | 93 | 1019.5 |
| 20260506105209 | 54 | 252 | 1.0 | 2.0 | 0.00 | 0.01 | 0.00 | 93 | 1019.6 |
| 20260506105007 | 53 | 252 | 0.0 | 2.0 | 0.00 | 0.01 | 0.00 | 93 | 1019.5 |
| 20260506104718 | 54 | 252 | 0.0 | 2.0 | 0.00 | 0.01 | 0.00 | 93 | 1019.5 |
| 20260506104553 | 53 | 252 | 0.0 | 2.0 | 0.00 | 0.01 | 0.00 | 93 | 1019.4 |
| 20260506104219 | 54 | 252 | 1.0 | 2.0 | 0.00 | 0.01 | 0.00 | 93 | 1019.5 |
| 20260506104031 | 53 | 252 | 0.0 | 2.0 | 0.00 | 0.01 | 0.00 | 93 | 1019.4 |
| 20260506103728 | 54 | 252 | 1.0 | 2.0 | 0.00 | 0.01 | 0.00 | 93 | 1019.4 |
| 20260506103513 | 53 | 240 | 0.0 | 1.0 | 0.00 | 0.01 | 0.00 | 93 | 1019.3 |
| 20260506103209 | 54 | 240 | 0.0 | 1.0 | 0.00 | 0.01 | 0.00 | 93 | 1019.3 |
| 20260506103056 | 53 | 240 | 0.0 | 1.0 | 0.00 | 0.01 | 0.00 | 93 | 1019.2 |
| 20260506102710 | 54 | 240 | 0.0 | 1.0 | 0.00 | 0.01 | 0.00 | 93 | 1019.3 |
| 20260506102538 | 53 | 240 | 0.0 | 1.0 | 0.00 | 0.01 | 0.00 | 93 | 1019.1 |
| 20260506102212 | 54 | 240 | 0.0 | 1.0 | 0.00 | 0.01 | 0.00 | 93 | 1019.2 |
| 20260506102020 | 53 | 240 | 0.0 | 2.0 | 0.00 | 0.01 | 0.00 | 93 | 1019.1 |
| 20260506101720 | 54 | 240 | 0.0 | 2.0 | 0.00 | 0.01 | 0.00 | 93 | 1019.2 |
| 20260506101500 | 53 | 240 | 0.0 | 2.0 | 0.00 | 0.01 | 0.00 | 93 | 1019.0 |
| 20260506101222 | 54 | 240 | 0.0 | 2.0 | 0.00 | 0.01 | 0.00 | 93 | 1019.1 |
| 20260506101043 | 53 | 240 | 0.0 | 2.0 | 0.00 | 0.01 | 0.00 | 93 | 1019.0 |
| 20260506100723 | 54 | 240 | 1.0 | 3.0 | 0.00 | 0.01 | 0.00 | 94 | 1019.1 |
| 20260506100525 | 54 | 240 | 0.0 | 3.0 | 0.00 | 0.01 | 0.00 | 94 | 1018.9 |
| 20260506100231 | 54 | 236 | 1.0 | 3.0 | 0.00 | 0.01 | 0.00 | 94 | 1019.1 |
| 20260506100047 | 54 | 236 | 1.0 | 3.0 | 0.00 | 0.01 | 0.00 | 94 | 1018.9 |
| 20260506095711 | 54 | 236 | 2.0 | 2.0 | 0.00 | 0.01 | 0.00 | 94 | 1019.0 |
| 20260506095528 | 54 | 236 | 1.0 | 2.0 | 0.00 | 0.01 | 0.00 | 94 | 1018.9 |
| 20260506095221 | 54 | 236 | 1.0 | 2.0 | 0.00 | 0.01 | 0.00 | 94 | 1019.1 |
| 20260506095009 | 54 | 236 | 0.0 | 1.0 | 0.00 | 0.01 | 0.00 | 94 | 1019.0 |
| 20260506094721 | 54 | 236 | 0.0 | 1.0 | 0.00 | 0.01 | 0.00 | 94 | 1019.1 |
| 20260506094619 | 54 | 236 | 0.0 | 1.0 | 0.00 | 0.01 | 0.00 | 94 | 1018.9 |
| 20260506094222 | 54 | 236 | 1.0 | 1.0 | 0.00 | 0.01 | 0.00 | 94 | 1019.1 |
| 20260506094033 | 54 | 236 | 0.0 | 1.0 | 0.00 | 0.01 | 0.00 | 94 | 1018.9 |
| 20260506093731 | 54 | 236 | 0.0 | 0.0 | 0.00 | 0.01 | 0.00 | 94 | 1019.0 |
| 20260506093514 | 54 | 236 | 0.0 | 0.0 | 0.00 | 0.01 | 0.00 | 94 | 1018.8 |
| 20260506093211 | 54 | 236 | 0.0 | 0.0 | 0.00 | 0.01 | 0.00 | 94 | 1019.0 |
| 20260506093040 | 54 | 236 | 0.0 | 0.0 | 0.00 | 0.01 | 0.00 | 94 | 1018.9 |
| 20260506092713 | 54 | 236 | 0.0 | 1.0 | 0.00 | 0.01 | 0.00 | 93 | 1019.0 |
| 20260506092521 | 54 | 236 | 0.0 | 2.0 | 0.00 | 0.01 | 0.00 | 93 | 1018.8 |
| 20260506092221 | 54 | 236 | 0.0 | 2.0 | 0.00 | 0.01 | 0.00 | 93 | 1018.9 |
| 20260506092102 | 54 | 236 | 0.0 | 2.0 | 0.00 | 0.01 | 0.00 | 93 | 1018.8 |
| 20260506091723 | 54 | 236 | 1.0 | 2.0 | 0.00 | 0.01 | 0.00 | 93 | 1018.9 |
| 20260506091543 | 54 | 236 | 0.0 | 1.0 | 0.00 | 0.01 | 0.00 | 93 | 1018.9 |
| 20260506091223 | 54 | 236 | 0.0 | 0.0 | 0.00 | 0.01 | 0.00 | 93 | 1018.9 |
| 20260506091022 | 54 | 236 | 0.0 | 0.0 | 0.00 | 0.01 | 0.00 | 93 | 1018.7 |
| 20260506090731 | 54 | 236 | 0.0 | 1.0 | 0.00 | 0.01 | 0.00 | 93 | 1018.9 |
| 20260506090504 | 54 | 236 | 0.0 | 2.0 | 0.00 | 0.01 | 0.00 | 93 | 1018.7 |
| 20260506090213 | 54 | 236 | 0.0 | 2.0 | 0.00 | 0.01 | 0.00 | 93 | 1018.9 |
| 20260506090048 | 54 | 236 | 0.0 | 2.0 | 0.00 | 0.01 | 0.00 | 93 | 1018.7 |
| 20260506085741 | 54 | 236 | 1.0 | 2.0 | 0.00 | 0.01 | 0.00 | 93 | 1018.9 |
| 20260506085513 | 54 | 236 | 0.0 | 2.0 | 0.00 | 0.01 | 0.00 | 93 | 1018.7 |